Time,TemperatureF,DewpointF,PressureIn,WindDirection,WindDirectionDegrees,WindSpeedMPH,WindSpeedGustMPH,Humidity,HourlyPrecipIn,Conditions,Clouds,dailyrainin,SoftwareType,DateUTC
2015-08-04 00:03:00,77.0,75.0,29.88,SW,228,0.0,0.0,93,-99.99,,,-99.99,,2015-08-04 05:03:00,
2015-08-04 00:13:00,77.0,75.0,29.88,SW,228,0.0,0.0,94,-99.99,,,-99.99,,2015-08-04 05:13:00,
2015-08-04 00:24:00,77.0,75.0,29.88,SW,228,0.0,0.0,94,-99.99,,,-99.99,,2015-08-04 05:24:00,
2015-08-04 00:33:00,77.0,75.0,29.88,SW,228,0.0,0.0,94,-99.99,,,-99.99,,2015-08-04 05:33:00,
2015-08-04 00:44:00,77.0,75.0,29.88,SW,228,0.0,0.0,95,-99.99,,,-99.99,,2015-08-04 05:44:00,
2015-08-04 00:54:00,77.0,75.0,29.88,SW,228,0.0,0.0,95,-99.99,,,-99.99,,2015-08-04 05:54:00,
2015-08-04 01:03:00,77.0,75.0,29.88,SW,228,0.0,0.0,95,-99.99,,,-99.99,,2015-08-04 06:03:00,
2015-08-04 01:13:00,76.0,74.0,29.88,SW,228,0.0,0.0,95,-99.99,,,-99.99,,2015-08-04 06:13:00,
2015-08-04 01:23:00,76.0,74.0,29.88,SW,228,0.0,0.0,95,-99.99,,,-99.99,,2015-08-04 06:23:00,
2015-08-04 01:33:00,76.0,74.0,29.88,SW,228,-999.9,-999.0,95,-99.99,,,-99.99,,2015-08-04 06:33:00,
2015-08-04 01:44:00,76.0,75.0,29.88,SW,228,0.0,0.0,96,-99.99,,,-99.99,,2015-08-04 06:44:00,
2015-08-04 01:53:00,76.0,75.0,29.88,SW,228,0.0,0.0,96,-99.99,,,-99.99,,2015-08-04 06:53:00,
2015-08-04 02:03:00,76.0,75.0,29.88,SW,228,0.0,0.0,96,-99.99,,,-99.99,,2015-08-04 07:03:00,
2015-08-04 02:13:00,76.0,75.0,29.88,SW,228,0.0,0.0,96,-99.99,,,-99.99,,2015-08-04 07:13:00,
2015-08-04 02:23:00,76.0,75.0,29.88,SW,228,0.0,0.0,96,-99.99,,,-99.99,,2015-08-04 07:23:00,
2015-08-04 02:33:00,76.0,75.0,29.88,SW,228,0.0,0.0,96,-99.99,,,-99.99,,2015-08-04 07:33:00,
2015-08-04 02:44:00,76.0,75.0,29.88,SW,228,0.0,0.0,96,-99.99,,,-99.99,,2015-08-04 07:44:00,
2015-08-04 02:53:00,76.0,75.0,29.88,SW,228,0.0,0.0,96,-99.99,,,-99.99,,2015-08-04 07:53:00,
2015-08-04 03:03:00,75.0,74.0,29.88,SW,228,0.0,0.0,96,-99.99,,,-99.99,,2015-08-04 08:03:00,
2015-08-04 03:13:00,75.0,74.0,29.88,SW,228,0.0,0.0,97,-99.99,,,-99.99,,2015-08-04 08:13:00,
2015-08-04 03:23:00,75.0,74.0,29.88,SW,228,0.0,0.0,97,-99.99,,,-99.99,,2015-08-04 08:23:00,
2015-08-04 03:33:00,75.0,74.0,29.88,SW,228,0.0,0.0,96,-99.99,,,-99.99,,2015-08-04 08:33:00,
2015-08-04 03:45:00,75.0,74.0,29.88,SW,228,0.0,0.0,96,-99.99,,,-99.99,,2015-08-04 08:45:00,
2015-08-04 03:53:00,75.0,74.0,29.88,SW,228,0.0,0.0,96,-99.99,,,-99.99,,2015-08-04 08:53:00,
2015-08-04 04:03:00,75.0,74.0,29.89,SW,228,0.0,0.0,96,-99.99,,,-99.99,,2015-08-04 09:03:00,
2015-08-04 04:13:00,75.0,74.0,29.89,SW,228,0.0,0.0,96,-99.99,,,-99.99,,2015-08-04 09:13:00,
2015-08-04 04:23:00,75.0,74.0,29.89,SW,228,0.0,0.0,96,-99.99,,,-99.99,,2015-08-04 09:23:00,
2015-08-04 04:33:00,75.0,74.0,29.89,SW,228,0.0,0.0,96,-99.99,,,-99.99,,2015-08-04 09:33:00,
2015-08-04 04:43:00,75.0,74.0,29.90,SW,228,0.0,0.0,96,-99.99,,,-99.99,,2015-08-04 09:43:00,
2015-08-04 04:53:00,75.0,74.0,29.90,SW,228,0.0,0.0,96,-99.99,,,-99.99,,2015-08-04 09:53:00,
2015-08-04 05:03:00,75.0,74.0,29.90,SW,228,0.0,0.0,97,-99.99,,,-99.99,,2015-08-04 10:03:00,
2015-08-04 05:13:00,75.0,74.0,29.91,SW,228,0.0,0.0,97,-99.99,,,-99.99,,2015-08-04 10:13:00,
2015-08-04 05:24:00,75.0,74.0,29.91,SW,228,0.0,0.0,97,-99.99,,,-99.99,,2015-08-04 10:24:00,
2015-08-04 05:33:00,75.0,74.0,29.91,SW,228,0.0,0.0,97,-99.99,,,-99.99,,2015-08-04 10:33:00,
2015-08-04 05:43:00,75.0,74.0,29.92,SW,228,0.0,0.0,97,-99.99,,,-99.99,,2015-08-04 10:43:00,
2015-08-04 05:53:00,75.0,74.0,29.92,SW,228,0.0,0.0,97,-99.99,,,-99.99,,2015-08-04 10:53:00,
2015-08-04 06:13:00,75.0,74.0,29.93,SW,228,0.0,0.0,97,-99.99,,,-99.99,,2015-08-04 11:13:00,
2015-08-04 06:24:00,75.0,74.0,29.93,SW,228,0.0,0.0,97,-99.99,,,-99.99,,2015-08-04 11:24:00,
2015-08-04 06:33:00,75.0,74.0,29.93,SW,228,0.0,-999.0,97,-99.99,,,-99.99,,2015-08-04 11:33:00,
2015-08-04 06:44:00,75.0,74.0,29.93,SW,228,0.0,0.0,97,-99.99,,,-99.99,,2015-08-04 11:44:00,
2015-08-04 06:54:00,75.0,74.0,29.93,SW,228,0.0,0.0,97,-99.99,,,-99.99,,2015-08-04 11:54:00,
2015-08-04 07:04:00,75.0,74.0,29.93,SW,228,0.0,0.0,97,-99.99,,,-99.99,,2015-08-04 12:04:00,
2015-08-04 07:13:00,76.0,75.0,29.93,SW,228,0.0,0.0,98,-99.99,,,-99.99,,2015-08-04 12:13:00,
2015-08-04 07:23:00,76.0,75.0,29.93,SW,228,0.0,0.0,98,-99.99,,,-99.99,,2015-08-04 12:23:00,
2015-08-04 07:36:00,77.0,76.0,29.93,SW,228,0.0,0.0,98,-99.99,,,-99.99,,2015-08-04 12:36:00,
2015-08-04 07:44:00,78.0,77.0,29.94,SW,228,0.0,0.0,97,-99.99,,,-99.99,,2015-08-04 12:44:00,
2015-08-04 07:53:00,78.0,77.0,29.94,SW,228,0.0,0.0,97,-99.99,,,-99.99,,2015-08-04 12:53:00,
2015-08-04 08:04:00,79.0,77.0,29.94,SW,228,0.0,0.0,94,-99.99,,,-99.99,,2015-08-04 13:04:00,
2015-08-04 08:13:00,81.0,78.0,29.94,WSW,244,0.0,0.0,90,-99.99,,,-99.99,,2015-08-04 13:13:00,
2015-08-04 08:24:00,81.0,78.0,29.94,WSW,244,0.0,0.0,90,-99.99,,,-99.99,,2015-08-04 13:24:00,
2015-08-04 08:34:00,82.0,78.0,29.95,West,265,1.0,2.0,89,-99.99,,,-99.99,,2015-08-04 13:34:00,
2015-08-04 08:43:00,84.0,79.0,29.95,WNW,288,0.0,3.0,85,-99.99,,,-99.99,,2015-08-04 13:43:00,
2015-08-04 08:53:00,84.0,79.0,29.95,WNW,288,0.0,3.0,85,-99.99,,,-99.99,,2015-08-04 13:53:00,
2015-08-04 09:03:00,85.0,78.0,29.95,WNW,294,1.0,3.0,80,-99.99,,,-99.99,,2015-08-04 14:03:00,
2015-08-04 09:13:00,85.0,78.0,29.95,NNW,335,1.0,3.0,79,-99.99,,,-99.99,,2015-08-04 14:13:00,
2015-08-04 09:23:00,85.0,78.0,29.95,NNW,335,1.0,3.0,79,-99.99,,,-99.99,,2015-08-04 14:23:00,
2015-08-04 09:33:00,86.0,79.0,29.96,NNW,335,1.0,2.0,79,-99.99,,,-99.99,,2015-08-04 14:33:00,
2015-08-04 09:43:00,87.0,77.0,29.96,NNW,333,1.0,3.0,73,-99.99,,,-99.99,,2015-08-04 14:43:00,
2015-08-04 09:53:00,87.0,77.0,29.96,NNW,333,1.0,3.0,73,-99.99,,,-99.99,,2015-08-04 14:53:00,
2015-08-04 10:03:00,88.0,79.0,29.96,SW,227,0.0,2.0,74,-99.99,,,-99.99,,2015-08-04 15:03:00,
2015-08-04 10:13:00,88.0,78.0,29.96,North,360,1.0,3.0,73,-99.99,,,-99.99,,2015-08-04 15:13:00,
2015-08-04 10:27:00,88.0,78.0,29.96,North,360,1.0,3.0,73,-99.99,,,-99.99,,2015-08-04 15:27:00,
2015-08-04 10:33:00,90.0,78.0,29.96,SW,214,1.0,-999.0,69,-99.99,,,-99.99,,2015-08-04 15:33:00,
2015-08-04 10:43:00,91.0,78.0,29.96,WSW,241,2.0,4.0,66,-99.99,,,-99.99,,2015-08-04 15:43:00,
2015-08-04 10:53:00,91.0,78.0,29.96,WSW,241,2.0,4.0,66,-99.99,,,-99.99,,2015-08-04 15:53:00,
2015-08-04 11:03:00,92.0,78.0,29.97,SW,219,1.0,4.0,63,-99.99,,,-99.99,,2015-08-04 16:03:00,
2015-08-04 11:13:00,93.0,79.0,29.96,WSW,246,0.0,4.0,63,-99.99,,,-99.99,,2015-08-04 16:13:00,
2015-08-04 11:25:00,93.0,79.0,29.96,WSW,246,0.0,4.0,63,-99.99,,,-99.99,,2015-08-04 16:25:00,
2015-08-04 11:33:00,92.0,78.0,29.97,WSW,238,2.0,3.0,64,-99.99,,,-99.99,,2015-08-04 16:33:00,
2015-08-04 11:48:00,92.0,79.0,29.97,SW,227,1.0,4.0,66,-99.99,,,-99.99,,2015-08-04 16:48:00,